Regional Weather Roundup
Issued by NWS

Home | Current Version | Previous Version | Text Only | Print | Product List | Glossary Off
Versions: 1 2 3 4 5 6 7 8 9 10 11 12 13 14 15 16 17 18 19 20 21 22 23 24 25 26 27 28 29 30 31 32 33 34 35 36 37 38 39 40 41 42 43 44 45 46 47 48 49 50

000
ASUS45 KPSR 312200
RWRAZ

PRELIMINARY ARIZONA REGIONAL HOURLY WEATHER ROUNDUP
NATIONAL WEATHER SERVICE PHOENIX AZ
300 PM MST SAT JAN 31 2015

NOTE: FAIR INDICATES FEW OR NO CLOUDS BELOW 12,000 FEET WITH NO
SIGNIFICANT WEATHER AND/OR OBSTRUCTIONS TO VISIBILITY.

AZZ001>003-036-312300-
NORTHWEST ARIZONA

CITY           SKY/WX    TMP DP  RH WIND       PRES   REMARKS
KINGMAN        MOSUNNY   55  44  66 N10       29.90S
$$

AZZ004>008-015-016-018-312300-
NORTH CENTRAL ARIZONA

CITY           SKY/WX    TMP DP  RH WIND       PRES   REMARKS
GRAND CANYON   PTSUNNY   45  35  68 VRB7      29.93R
PRESCOTT       PTSUNNY   52  37  56 W6        29.88F
FLAGSTAFF      NOT AVBL
PAYSON         CLOUDY    46  45  93 CALM      29.91R
$$

AZZ009>014-017-312300-
NORTHEAST ARIZONA

CITY           SKY/WX    TMP DP  RH WIND       PRES   REMARKS
WINSLOW        NOT AVBL
SAINT JOHNS    CLOUDY    48  42  80 NW15      29.87S
WINDOW ROCK    CLOUDY    42  35  76 CALM      29.90R
SHOW LOW       PTSUNNY   41  37  87 N10       29.92R
$$

AZZ023-312300-
GREATER PHOENIX AREA

CITY           SKY/WX    TMP DP  RH WIND       PRES   REMARKS
PHOENIX        CLOUDY    58  54  86 S8        29.83S
GLENDALE       CLOUDY    61  54  77 E6        29.85S
DEER VALLEY    CLOUDY    60  51  72 SE7       29.83S
SCOTTSDALE     CLOUDY    59  50  72 SE8       29.85S
MESA-FALCON    PTSUNNY   57  55  94 S9        29.84S
MESA-GATEWAY   RAIN      55  54  94 S6        29.87S
CHANDLER       CLOUDY    57  54  88 SE7       29.86R
$$

AZZ027-028-312300-
SOUTHWEST MARICOPA COUNTY AND PINAL COUNTY

CITY           SKY/WX    TMP DP  RH WIND       PRES   REMARKS
CASA GRANDE    CLOUDY    54  52  94 CALM      29.86S
$$

AZZ503-504-507>509-312300-
SOUTHEAST ARIZONA

CITY           SKY/WX    TMP DP  RH WIND       PRES   REMARKS
TUCSON         LGT RAIN  52  49  89 N6        29.87S
DAVIS-MONTHAN  HVY RAIN  53  50  90 VRB5      29.86R FOG
RYAN FIELD       N/A     54  54 100 CALM      29.87S
NOGALES        RAIN      51  45  79 S10       29.86R
SIERRA VISTA   PTSUNNY   54  44  69 NW8       29.85S
SAFFORD        LGT RAIN  52  46  80 CALM      29.85S
$$

AZZ020-021-025-026-031-312300-
SOUTHWEST ARIZONA

CITY           SKY/WX    TMP DP  RH WIND       PRES   REMARKS
YUMA           NOT AVBL
$$

CAZ031-033-041-043-047-048-061-312300-
SOUTHERN CALIFORNIA

CITY           SKY/WX    TMP DP  RH WIND       PRES   REMARKS
DOWNTOWN L.A.  MOSUNNY   69  53  56 CALM      29.88R
L.A. AIRPORT   MOSUNNY   64  55  72 W13       29.89S
SAN DIEGO      MOSUNNY   65  50  58 W10       29.89F
BURBANK        MOSUNNY   71  39  31 N12G18    29.87S
ONTARIO        MOSUNNY   66  40  38 NE15G28   29.87F
RIVERSIDE      MOSUNNY   69  41  36 NE14G25   29.88R
PALM SPRINGS   CLOUDY    70  41  34 E7        29.90F
EL CENTRO NAS  PTSUNNY   71  43  36 NW17      29.85F
IMPERIAL       MOSUNNY   69  44  40 N12       29.84F
BLYTHE         PTSUNNY   67  50  54 N10       29.85F
$$

NVZ020-UTZ003-312300-
SOUTHERN NEVADA-UTAH

CITY           SKY/WX    TMP DP  RH WIND       PRES   REMARKS
LAS VEGAS      NOT AVBL
SALT LAKE CITY MOSUNNY   46  28  49 NW10      30.04F
$$

NMZ009-TXZ055-312300-
NEW MEXICO-WEST TEXAS

CITY           SKY/WX    TMP DP  RH WIND       PRES   REMARKS
ALBUQUERQUE    CLOUDY    40  35  83 CALM      29.89S FOG
EL PASO        PTSUNNY   58  44  60 W12       29.84S
$$


........................KEY........................
SKY/WX - SKY CONDITION/WEATHER
TMP    - TEMPERATURE IN FAHRENHEIT
DP     - DEW POINT IN FAHRENHEIT
RH     - RELATIVE HUMIDITY IN PERCENT
WIND   - DIRECTION AND SPEED IN MILES PER HOUR (MPH)
VRB    - VARIABLE WIND DIRECTION
PRES   - MEAN SEA LEVEL PRESSURE IN INCHES OF MERCURY
         F - FALLING PRESSURE   R - RISING PRESSURE
         S - STEADY PRESSURE
VSB    - VISIBILITY IN MILES
HX     - HEAT INDEX IN FAHRENHEIT
WCI    - WIND CHILL INDEX IN FAHRENHEIT
TC     - TEMPERATURE IN CELSIUS WHICH IS ALSO KNOWN AS
         TEMPERATURE IN CENTIGRADE
AFB    - AIR FORCE BASE
         LUKE AFB IS LUKE AIR FORCE BASE
         DAVIS-MONTHAN IS DAVIS-MONTHAN AIR FORCE BASE
NAS    - NAVAL AIR STATION
         EL CENTRO NAS IS EL CENTRO NAVAL AIR STATION
N/A    - NOT AVAILABLE


USA.gov is the U.S. government's official web portal to all federal, state and local government web resources and services.